DW0494 Weather Reports


Display with metric or nautical units.
time (UTC)temp
F
wind
direction
speed
MPH
gust
MPH
rain 1hr
in
rain 24hr
in
rain mn
in
humidity
%
barometer
mb
20260508045403 57 0 0.0 0.0 0.00 0.01 0.00 88 1019.8
20260508044903 57 0 0.0 0.0 0.00 0.01 0.00 88 1019.7
20260508044404 57 0 0.0 0.0 0.00 0.01 0.00 88 1019.7
20260508042905 57 0 0.0 0.0 0.00 0.01 0.00 88 1019.6
20260508042404 57 0 0.0 0.0 0.00 0.01 0.00 88 1019.5
20260508041903 57 0 0.0 0.0 0.00 0.01 0.00 88 1019.4
20260508040904 57 0 0.0 0.0 0.00 0.01 0.00 88 1019.4
20260508040404 57 0 0.0 0.0 0.00 0.01 0.00 88 1019.4
20260508034904 57 2 0.0 0.0 0.00 0.01 0.00 88 1019.6
20260508034405 57 52 0.0 1.0 0.00 0.01 0.00 88 1019.6
20260508033904 57 52 0.0 1.0 0.00 0.01 0.00 88 1019.6
20260508032404 57 54 0.0 0.0 0.00 0.01 0.00 87 1019.7
20260508031905 58 54 0.0 0.0 0.00 0.01 0.00 87 1019.6
20260508031405 58 54 0.0 0.0 0.00 0.01 0.00 87 1019.5
20260508030905 57 54 0.0 1.0 0.00 0.01 0.00 87 1019.5
20260508030403 57 54 0.0 1.0 0.00 0.01 0.00 87 1019.4
20260508024904 58 54 0.0 0.0 0.00 0.01 0.00 87 1019.5
20260508024404 58 54 0.0 0.0 0.00 0.01 0.00 87 1019.5
20260508023905 58 54 0.0 0.0 0.00 0.01 0.00 87 1019.4
20260508023403 58 54 0.0 0.0 0.00 0.01 0.00 87 1019.3
20260508022905 58 54 0.0 0.0 0.00 0.01 0.00 87 1019.3
20260508022404 58 54 0.0 0.0 0.00 0.01 0.00 87 1019.3
20260508021904 58 54 0.0 0.0 0.00 0.01 0.00 86 1019.3
20260508021403 58 54 0.0 0.0 0.00 0.01 0.00 86 1019.1
20260508020905 58 54 0.0 0.0 0.00 0.01 0.00 86 1019.2
20260508020403 58 54 0.0 0.0 0.00 0.01 0.00 86 1019.2
20260508015904 59 54 0.0 0.0 0.00 0.01 0.00 86 1019.2
20260508015403 59 54 0.0 0.0 0.00 0.01 0.00 86 1019.2
20260508014905 59 54 0.0 1.0 0.00 0.01 0.00 86 1019.2
20260508014404 59 54 0.0 1.0 0.00 0.01 0.00 86 1019.3
20260508013904 59 54 0.0 1.0 0.00 0.01 0.00 86 1019.3
20260508013405 59 54 0.0 0.0 0.00 0.01 0.00 86 1019.3
20260508011404 59 54 0.0 0.0 0.00 0.01 0.00 85 1019.5
20260508010903 59 54 0.0 0.0 0.00 0.01 0.00 85 1019.7
20260508010405 59 54 0.0 0.0 0.00 0.01 0.00 84 1019.7
20260508005906 59 54 0.0 1.0 0.00 0.01 0.00 84 1019.8
20260508005406 59 54 0.0 1.0 0.00 0.01 0.00 84 1019.8
20260508004904 59 54 0.0 1.0 0.00 0.01 0.00 83 1019.8
20260508004404 59 55 0.0 1.0 0.00 0.01 0.00 82 1019.8
20260508003904 59 55 0.0 0.0 0.00 0.01 0.00 81 1019.9
20260508003404 60 55 0.0 1.0 0.00 0.01 0.00 80 1019.9
20260508002403 60 55 1.0 1.0 0.00 0.01 0.00 80 1019.8
20260508001403 60 27 0.0 1.0 0.00 0.01 0.00 81 1020.0
20260508000904 61 52 0.0 1.0 0.00 0.01 0.00 80 1019.9
20260508000405 61 52 0.0 2.0 0.00 0.01 0.00 81 1020.0
20260507235404 60 54 0.0 2.0 0.00 0.01 0.00 83 1020.1
20260507234905 60 55 0.0 2.0 0.00 0.01 0.00 83 1020.1
20260507234403 60 55 0.0 2.0 0.00 0.01 0.00 83 1020.1
20260507233403 60 55 1.0 2.0 0.00 0.01 0.00 82 1020.2
20260507232904 60 54 1.0 2.0 0.00 0.01 0.00 82 1020.2
20260507232404 61 71 1.0 2.0 0.00 0.01 0.00 82 1020.2
20260507231404 60 79 1.0 1.0 0.00 0.01 0.00 83 1020.4
20260507230904 59 80 0.0 0.0 0.00 0.01 0.00 84 1020.4
20260507230406 59 80 0.0 0.0 0.00 0.01 0.00 84 1020.5
20260507225904 60 80 0.0 0.0 0.00 0.01 0.00 84 1020.5
20260507225404 60 80 0.0 0.0 0.00 0.01 0.00 84 1020.6
20260507224904 60 80 0.0 0.0 0.00 0.01 0.00 84 1020.5
20260507224405 60 80 0.0 1.0 0.00 0.01 0.00 84 1020.7
20260507223905 60 80 0.0 1.0 0.00 0.01 0.00 83 1020.8
20260507223404 61 80 0.0 1.0 0.00 0.01 0.00 82 1020.9
20260507222904 61 57 0.0 1.0 0.00 0.01 0.00 82 1020.9
20260507222404 61 57 0.0 1.0 0.00 0.01 0.00 82 1020.9
20260507221904 61 57 1.0 2.0 0.00 0.01 0.00 82 1020.8
20260507221406 62 55 1.0 2.0 0.00 0.01 0.00 82 1020.8
20260507220903 62 65 1.0 3.0 0.00 0.01 0.00 81 1020.7
20260507220404 62 62 1.0 3.0 0.00 0.01 0.00 81 1020.7
20260507215903 62 56 1.0 2.0 0.00 0.01 0.00 81 1020.7
20260507215405 62 51 1.0 2.0 0.00 0.01 0.00 81 1020.8
20260507214403 62 56 1.0 2.0 0.00 0.01 0.00 81 1020.7
20260507213904 62 66 1.0 2.0 0.00 0.01 0.00 81 1020.7
20260507213406 62 58 1.0 2.0 0.00 0.01 0.00 82 1020.7
20260507212905 61 66 1.0 1.0 0.00 0.01 0.00 82 1020.7
20260507212404 61 66 1.0 2.0 0.00 0.01 0.00 82 1020.8
20260507211903 61 66 1.0 2.0 0.00 0.01 0.00 82 1020.8
20260507211405 61 65 1.0 1.0 0.00 0.01 0.00 82 1020.9
20260507210903 61 65 1.0 1.0 0.00 0.01 0.00 81 1020.8
20260507205904 62 65 0.0 1.0 0.00 0.01 0.01 81 1020.7
20260507205404 62 65 0.0 1.0 0.00 0.01 0.01 81 1020.7
20260507204403 62 65 0.0 1.0 0.00 0.01 0.01 80 1020.6
20260507203903 61 65 1.0 1.0 0.00 0.01 0.01 80 1020.6
20260507203403 61 65 1.0 1.0 0.00 0.01 0.01 80 1020.6
20260507202905 62 65 1.0 1.0 0.00 0.01 0.01 79 1020.6
20260507202404 62 66 1.0 2.0 0.00 0.01 0.01 79 1020.6
20260507201904 62 72 1.0 2.0 0.00 0.01 0.01 80 1020.6
20260507201405 61 63 1.0 2.0 0.00 0.01 0.01 81 1020.6
20260507200903 61 70 1.0 2.0 0.00 0.01 0.01 81 1020.6
20260507200404 61 57 2.0 2.0 0.00 0.01 0.01 80 1020.6
20260507195903 62 56 1.0 2.0 0.00 0.01 0.01 80 1020.6
20260507195405 62 55 0.0 0.0 0.00 0.01 0.01 80 1020.6
20260507194905 62 55 0.0 1.0 0.00 0.01 0.01 80 1020.7
20260507194403 62 55 0.0 2.0 0.00 0.01 0.01 80 1020.8
20260507193905 62 55 1.0 2.0 0.00 0.01 0.01 80 1020.7
20260507193404 62 58 1.0 2.0 0.00 0.01 0.01 79 1020.6
20260507192404 62 52 0.0 2.0 0.00 0.01 0.01 78 1020.7
20260507191404 62 55 1.0 2.0 0.00 0.01 0.01 79 1020.6
20260507190404 63 53 1.0 2.0 0.00 0.01 0.01 79 1020.7
20260507185903 63 65 1.0 2.0 0.00 0.01 0.01 79 1020.8
20260507185404 63 58 1.0 3.0 0.00 0.01 0.01 79 1020.7
20260507184905 63 66 1.0 3.0 0.00 0.01 0.01 79 1020.6
20260507184404 63 53 1.0 1.0 0.00 0.01 0.01 80 1020.6
20260507183904 62 54 1.0 1.0 0.00 0.01 0.01 80 1020.6
20260507183403 63 54 1.0 2.0 0.00 0.01 0.01 80 1020.5
20260507182905 63 53 0.0 3.0 0.00 0.01 0.01 80 1020.5
20260507182403 63 54 1.0 3.0 0.00 0.01 0.01 80 1020.5
20260507181404 63 44 1.0 2.0 0.00 0.01 0.01 80 1020.4
20260507180904 63 46 0.0 1.0 0.00 0.01 0.01 79 1020.4
20260507180403 63 46 0.0 1.0 0.00 0.01 0.01 79 1020.4
20260507175905 63 38 0.0 0.0 0.00 0.01 0.01 79 1020.4
20260507175403 63 38 0.0 0.0 0.00 0.01 0.01 78 1020.4
20260507174903 63 38 0.0 0.0 0.00 0.01 0.01 77 1020.5
20260507174404 63 39 0.0 1.0 0.00 0.01 0.01 78 1020.4
20260507173403 64 39 0.0 0.0 0.00 0.01 0.01 76 1019.9
20260507172405 65 39 0.0 2.0 0.00 0.01 0.01 75 1019.6
20260507171906 64 39 0.0 3.0 0.00 0.01 0.01 75 1019.7
20260507171406 64 45 1.0 3.0 0.00 0.01 0.01 75 1019.8
20260507170404 65 69 1.0 2.0 0.00 0.01 0.01 76 1020.2
20260507165905 65 53 1.0 2.0 0.00 0.01 0.01 76 1020.3
20260507164904 67 169 0.0 0.0 0.00 0.01 0.01 76 1020.6
20260507163904 67 169 0.0 0.0 0.00 0.01 0.01 75 1020.6
20260507163403 67 169 0.0 0.0 0.00 0.01 0.01 74 1020.5
20260507162404 67 169 0.0 0.0 0.00 0.01 0.01 74 1020.5
20260507161905 67 169 0.0 1.0 0.00 0.01 0.01 74 1020.6
20260507160903 67 176 0.0 2.0 0.00 0.01 0.01 74 1020.6
20260507160403 67 215 0.0 2.0 0.00 0.01 0.01 73 1020.6
20260507155404 68 185 0.0 1.0 0.00 0.01 0.01 73 1020.5
20260507154405 68 220 0.0 0.0 0.00 0.01 0.01 73 1020.6
20260507153904 68 222 0.0 1.0 0.00 0.01 0.01 74 1020.6
20260507153403 67 222 0.0 1.0 0.00 0.01 0.01 74 1020.8
20260507152903 67 221 0.0 1.0 0.00 0.01 0.01 72 1020.8
20260507152405 67 221 0.0 1.0 0.00 0.01 0.01 73 1020.8
20260507151904 67 223 0.0 1.0 0.00 0.01 0.01 72 1020.9
20260507151404 68 160 0.0 1.0 0.00 0.01 0.01 72 1020.8
20260507150904 68 198 0.0 0.0 0.00 0.01 0.01 72 1020.8
20260507150404 68 198 0.0 1.0 0.00 0.01 0.01 70 1020.8
20260507145904 68 198 0.0 1.0 0.00 0.01 0.01 70 1020.7
20260507144904 69 214 0.0 2.0 0.00 0.01 0.01 69 1020.8
20260507144404 69 210 0.0 2.0 0.00 0.01 0.01 69 1020.8
20260507143906 70 250 1.0 2.0 0.00 0.01 0.01 67 1020.8
20260507143403 70 212 0.0 2.0 0.00 0.01 0.01 67 1020.8
20260507142905 70 229 0.0 3.0 0.00 0.01 0.01 68 1020.7
20260507142404 71 226 1.0 3.0 0.00 0.01 0.01 68 1020.8
20260507140905 72 253 1.0 3.0 0.00 0.01 0.01 67 1020.7
20260507140404 72 204 1.0 3.0 0.00 0.01 0.01 67 1020.6
20260507135404 72 217 1.0 2.0 0.00 0.01 0.01 68 1020.5
20260507134904 72 230 0.0 2.0 0.00 0.01 0.01 70 1020.5
20260507134404 71 255 0.0 3.0 0.00 0.01 0.01 69 1020.5
20260507133904 71 233 1.0 3.0 0.00 0.01 0.01 68 1020.4
20260507133406 71 217 1.0 3.0 0.00 0.01 0.01 68 1020.5
20260507132905 71 191 0.0 3.0 0.00 0.01 0.01 71 1020.5
20260507132404 71 206 0.0 3.0 0.00 0.01 0.01 72 1020.5
20260507131906 70 201 1.0 3.0 0.00 0.01 0.01 73 1020.6
20260507131406 70 122 1.0 3.0 0.00 0.01 0.01 70 1020.7
20260507130904 69 75 0.0 2.0 0.00 0.01 0.01 73 1020.7
20260507130403 69 45 1.0 2.0 0.00 0.01 0.01 72 1020.8
20260507125903 69 54 0.0 1.0 0.00 0.01 0.01 74 1020.8
20260507125405 68 54 0.0 8.0 0.00 0.01 0.01 73 1020.7
20260507124905 68 4 1.0 8.0 0.00 0.01 0.01 71 1020.6
20260507123904 68 50 2.0 6.0 0.00 0.01 0.01 70 1020.7
20260507123403 69 51 3.0 6.0 0.00 0.01 0.01 69 1021.0
20260507122903 69 52 0.0 2.0 0.00 0.01 0.01 72 1021.2
20260507121903 67 243 0.0 1.0 0.00 0.01 0.01 78 1021.5
20260507121405 66 257 0.0 1.0 0.00 0.01 0.01 79 1021.6
20260507120403 65 2 0.0 2.0 0.00 0.01 0.01 82 1021.6
20260507115906 65 356 0.0 3.0 0.00 0.01 0.01 84 1021.7
20260507115403 65 22 1.0 3.0 0.00 0.01 0.01 84 1021.7
20260507114904 64 43 0.0 2.0 0.01 0.01 0.01 84 1021.8
20260507114403 64 33 0.0 2.0 0.01 0.01 0.01 83 1021.9
20260507113905 65 19 1.0 2.0 0.01 0.01 0.01 83 1021.9
20260507113404 65 30 0.0 1.0 0.01 0.01 0.01 83 1022.1
20260507112903 65 348 0.0 0.0 0.01 0.01 0.01 83 1022.1
20260507105905 65 347 0.0 1.0 0.01 0.01 0.01 79 1022.1
20260507105403 66 283 0.0 0.0 0.01 0.01 0.01 80 1022.2
20260507104903 66 283 0.0 1.0 0.00 0.00 0.00 79 1022.2
20260507104405 67 282 0.0 1.0 0.00 0.00 0.00 78 1022.1
20260507103905 67 294 0.0 1.0 0.00 0.00 0.00 76 1022.2
20260507103403 67 295 0.0 2.0 0.00 0.00 0.00 75 1022.2
20260507102904 67 295 0.0 2.0 0.00 0.00 0.00 71 1022.1
20260507102403 68 314 1.0 2.0 0.00 0.00 0.00 69 1022.1
20260507101904 68 285 0.0 2.0 0.00 0.00 0.00 70 1022.1
20260507100903 68 257 0.0 5.0 0.00 0.00 0.00 68 1022.1
20260507100403 68 243 2.0 5.0 0.00 0.00 0.00 70 1022.1
20260507095905 68 249 2.0 5.0 0.00 0.00 0.00 68 1022.1
20260507095404 68 245 1.0 3.0 0.00 0.00 0.00 67 1022.1
20260507094905 68 240 0.0 3.0 0.00 0.00 0.00 67 1021.9
20260507093405 69 238 1.0 3.0 0.00 0.00 0.00 64 1021.8
20260507092904 69 269 0.0 1.0 0.00 0.00 0.00 64 1021.7
20260507092406 69 287 0.0 1.0 0.00 0.00 0.00 62 1021.5
20260507091904 69 296 0.0 1.0 0.00 0.00 0.00 61 1021.4
20260507091404 69 350 0.0 2.0 0.00 0.00 0.00 64 1021.4
20260507090904 68 213 0.0 2.0 0.00 0.00 0.00 64 1021.3
20260507090405 68 268 0.0 2.0 0.00 0.00 0.00 65 1021.3
20260507084404 68 219 0.0 1.0 0.00 0.00 0.00 66 1021.1
20260507083903 68 217 0.0 2.0 0.00 0.00 0.00 65 1021.1
20260507083403 68 221 0.0 2.0 0.00 0.00 0.00 68 1021.1
20260507082905 68 238 0.0 3.0 0.00 0.00 0.00 68 1021.1
20260507082404 68 244 1.0 3.0 0.00 0.00 0.00 68 1021.0
20260507081904 68 237 0.0 3.0 0.00 0.00 0.00 69 1021.0
20260507081405 68 229 1.0 3.0 0.00 0.00 0.00 67 1021.0
20260507080903 69 249 0.0 2.0 0.00 0.00 0.00 68 1020.9
20260507075903 69 220 0.0 2.0 0.00 0.00 0.00 67 1020.8
20260507075403 68 196 0.0 2.0 0.00 0.00 0.00 69 1020.7
20260507074905 68 251 1.0 2.0 0.00 0.00 0.00 68 1020.6
20260507074404 69 192 0.0 1.0 0.00 0.00 0.00 68 1020.5
20260507073903 69 211 0.0 1.0 0.00 0.00 0.00 67 1020.3
20260507073404 68 214 0.0 2.0 0.00 0.00 0.00 69 1020.3
20260507072905 68 209 0.0 2.0 0.00 0.00 0.00 70 1020.4
20260507071904 68 238 1.0 2.0 0.00 0.00 0.00 69 1020.2
20260507071404 68 238 0.0 2.0 0.00 0.00 0.00 70 1020.3
20260507070404 68 277 1.0 2.0 0.00 0.00 0.00 71 1020.2
20260507065907 66 248 0.0 1.0 0.00 0.00 0.00 73 1020.3
20260507065404 66 279 0.0 1.0 0.00 0.00 0.00 72 1020.4
20260507064404 67 231 0.0 3.0 0.00 0.00 0.00 72 1020.5
20260507063905 67 248 0.0 3.0 0.00 0.00 0.00 71 1020.5
20260507062403 68 280 1.0 3.0 0.00 0.00 0.00 70 1020.5
20260507061906 68 275 1.0 3.0 0.00 0.00 0.00 68 1020.4
20260507060903 70 300 1.0 2.0 0.00 0.00 0.00 64 1020.2
20260507060404 70 238 0.0 2.0 0.00 0.00 0.00 65 1020.2
20260507055405 70 201 0.0 1.0 0.00 0.00 0.00 64 1020.1
20260507054903 70 203 0.0 1.0 0.00 0.00 0.00 66 1020.0
20260507053904 68 205 0.0 2.0 0.00 0.00 0.00 69 1020.0
20260507053405 68 249 1.0 2.0 0.00 0.00 0.00 68 1020.1
20260507052406 68 329 0.0 1.0 0.00 0.00 0.00 67 1019.9
20260507051904 67 38 0.0 0.0 0.00 0.00 0.00 68 1019.9
20260507050903 67 38 0.0 0.0 0.00 0.00 0.00 67 1019.8
20260507050405 67 38 0.0 0.0 0.00 0.00 0.00 70 1019.8